International Skating Union - Official Site

ISU European Allround Speed Skating Championships 2017
January 6-8, 2017

Draw | Lap Times | Index | Classification

Referee: Daniel  CABELDUC  (SWE)
Starter: Andrè  de VRIES  (NED)
StartTime: EndTime: Air Temp: Ice Temp: Humidity:
15:58 17:15 14.5℃ -7.6℃ 36%
Result 10000m Men
Rankings as of Jan 8 2017 5:16PM
Rank: No.: Name: Nation: Time: Behind: Points:
1 14 Sven  Kramer NED NED 13:06.30400m - 35.85 - (35.8)
800m - 1:07.61 - (31.7)
1200m - 1:38.95 - (31.3)
1600m - 2:10.70 - (31.7)
2000m - 2:42.50 - (31.7)
2400m - 3:14.39 - (31.8)
2800m - 3:46.00 - (31.6)
3200m - 4:17.65 - (31.6)
3600m - 4:49.30 - (31.6)
4000m - 5:21.03 - (31.7)
4400m - 5:52.73 - (31.6)
4800m - 6:24.46 - (31.7)
5200m - 6:56.18 - (31.7)
5600m - 7:27.66 - (31.4)
6000m - 7:59.20 - (31.5)
6400m - 8:30.98 - (31.7)
6800m - 9:02.70 - (31.7)
7200m - 9:34.07 - (31.3)
7600m - 10:05.56 - (31.4)
8000m - 10:36.96 - (31.3)
8400m - 11:08.07 - (31.1)
8800m - 11:38.73 - (30.6)
9200m - 12:08.53 - (29.7)
9600m - 12:37.80 - (29.2)
10000m - 13:06.30 - (28.4)
39.315
2 12 Jan  Blokhuijsen NED NED 13:11.95400m - 35.41 - (35.4)
800m - 1:06.89 - (31.4)
1200m - 1:38.84 - (31.9)
1600m - 2:10.70 - (31.8)
2000m - 2:42.53 - (31.8)
2400m - 3:14.24 - (31.7)
2800m - 3:46.13 - (31.8)
3200m - 4:17.81 - (31.6)
3600m - 4:49.27 - (31.4)
4000m - 5:21.20 - (31.9)
4400m - 5:52.77 - (31.5)
4800m - 6:24.64 - (31.8)
5200m - 6:56.15 - (31.5)
5600m - 7:27.83 - (31.6)
6000m - 7:59.41 - (31.5)
6400m - 8:31.04 - (31.6)
6800m - 9:02.57 - (31.5)
7200m - 9:33.91 - (31.3)
7600m - 10:05.48 - (31.5)
8000m - 10:37.04 - (31.5)
8400m - 11:08.72 - (31.6)
8800m - 11:40.00 - (31.2)
9200m - 12:10.84 - (30.8)
9600m - 12:41.46 - (30.6)
10000m - 13:11.95 - (30.4)
5.65 39.597
3 3 Bart  Swings BEL BEL 13:15.54400m - 34.74 - (34.7)
800m - 1:06.02 - (31.2)
1200m - 1:37.37 - (31.3)
1600m - 2:09.41 - (32.0)
2000m - 2:41.56 - (32.1)
2400m - 3:13.49 - (31.9)
2800m - 3:45.55 - (32.0)
3200m - 4:17.54 - (31.9)
3600m - 4:49.48 - (31.9)
4000m - 5:21.19 - (31.7)
4400m - 5:52.78 - (31.5)
4800m - 6:24.50 - (31.7)
5200m - 6:56.13 - (31.6)
5600m - 7:27.79 - (31.6)
6000m - 7:59.15 - (31.3)
6400m - 8:30.56 - (31.4)
6800m - 9:02.00 - (31.4)
7200m - 9:33.43 - (31.4)
7600m - 10:04.89 - (31.4)
8000m - 10:36.38 - (31.4)
8400m - 11:08.15 - (31.7)
8800m - 11:39.81 - (31.6)
9200m - 12:11.58 - (31.7)
9600m - 12:43.64 - (32.0)
10000m - 13:15.54 - (31.8)
9.24 39.777
4 13 Douwe  de Vries NED NED 13:24.83400m - 34.68 - (34.6)
800m - 1:06.19 - (31.5)
1200m - 1:38.74 - (32.5)
1600m - 2:11.38 - (32.6)
2000m - 2:43.46 - (32.0)
2400m - 3:15.60 - (32.1)
2800m - 3:47.82 - (32.2)
3200m - 4:20.24 - (32.4)
3600m - 4:52.51 - (32.2)
4000m - 5:24.74 - (32.2)
4400m - 5:56.93 - (32.1)
4800m - 6:28.82 - (31.8)
5200m - 7:00.86 - (32.0)
5600m - 7:33.00 - (32.1)
6000m - 8:05.11 - (32.1)
6400m - 8:37.18 - (32.0)
6800m - 9:09.31 - (32.1)
7200m - 9:41.46 - (32.1)
7600m - 10:13.72 - (32.2)
8000m - 10:45.77 - (32.0)
8400m - 11:17.89 - (32.1)
8800m - 11:49.98 - (32.0)
9200m - 12:21.82 - (31.8)
9600m - 12:53.41 - (31.5)
10000m - 13:24.83 - (31.4)
18.53 40.241
5 9 Andrea  Giovannini ITA ITA 13:41.37400m - 35.08 - (35.0)
800m - 1:06.44 - (31.3)
1200m - 1:37.98 - (31.5)
1600m - 2:10.63 - (32.6)
2000m - 2:43.21 - (32.5)
2400m - 3:15.55 - (32.3)
2800m - 3:48.06 - (32.5)
3200m - 4:20.37 - (32.3)
3600m - 4:53.03 - (32.6)
4000m - 5:25.74 - (32.7)
4400m - 5:58.61 - (32.8)
4800m - 6:31.54 - (32.9)
5200m - 7:04.51 - (32.9)
5600m - 7:37.35 - (32.8)
6000m - 8:10.18 - (32.8)
6400m - 8:42.93 - (32.7)
6800m - 9:15.67 - (32.7)
7200m - 9:48.26 - (32.5)
7600m - 10:21.14 - (32.8)
8000m - 10:53.91 - (32.7)
8400m - 11:27.00 - (33.0)
8800m - 12:00.22 - (33.2)
9200m - 12:33.54 - (33.3)
9600m - 13:06.92 - (33.3)
10000m - 13:41.37 - (34.4)
35.07 41.068
6 18 Sverre Lunde  Pedersen NOR NOR 13:42.81400m - 35.62 - (35.6)
800m - 1:07.41 - (31.7)
1200m - 1:39.83 - (32.4)
1600m - 2:11.98 - (32.1)
2000m - 2:44.18 - (32.1)
2400m - 3:16.32 - (32.1)
2800m - 3:48.43 - (32.1)
3200m - 4:20.53 - (32.0)
3600m - 4:52.61 - (32.0)
4000m - 5:24.64 - (32.0)
4400m - 5:56.64 - (32.0)
4800m - 6:28.82 - (32.1)
5200m - 7:00.96 - (32.1)
5600m - 7:33.12 - (32.1)
6000m - 8:05.35 - (32.2)
6400m - 8:37.26 - (31.9)
6800m - 9:09.18 - (31.9)
7200m - 9:41.33 - (32.1)
7600m - 10:13.80 - (32.4)
8000m - 10:46.37 - (32.5)
8400m - 11:19.11 - (32.7)
8800m - 11:52.75 - (33.6)
9200m - 12:28.07 - (35.3)
9600m - 13:04.64 - (36.5)
10000m - 13:42.81 - (38.1)
36.51 41.140
7 16 Sindre  Henriksen NOR NOR 13:52.95400m - 35.39 - (35.3)
800m - 1:06.96 - (31.5)
1200m - 1:39.66 - (32.7)
1600m - 2:13.00 - (33.3)
2000m - 2:45.67 - (32.6)
2400m - 3:18.26 - (32.5)
2800m - 3:50.95 - (32.6)
3200m - 4:23.86 - (32.9)
3600m - 4:56.98 - (33.1)
4000m - 5:30.27 - (33.2)
4400m - 6:03.54 - (33.2)
4800m - 6:36.71 - (33.1)
5200m - 7:10.11 - (33.3)
5600m - 7:43.72 - (33.6)
6000m - 8:17.32 - (33.6)
6400m - 8:51.06 - (33.7)
6800m - 9:24.81 - (33.7)
7200m - 9:58.81 - (33.9)
7600m - 10:33.03 - (34.2)
8000m - 11:06.82 - (33.7)
8400m - 11:40.26 - (33.4)
8800m - 12:13.47 - (33.2)
9200m - 12:46.75 - (33.2)
9600m - 13:19.85 - (33.1)
10000m - 13:52.95 - (33.1)
46.65 41.647
8 25 Denis  Yuskov RUS RUS 14:04.07400m - 35.43 - (35.4)
800m - 1:08.46 - (33.0)
1200m - 1:41.68 - (33.2)
1600m - 2:14.77 - (33.0)
2000m - 2:48.21 - (33.4)
2400m - 3:21.30 - (33.0)
2800m - 3:54.69 - (33.3)
3200m - 4:27.79 - (33.1)
3600m - 5:01.01 - (33.2)
4000m - 5:34.53 - (33.5)
4400m - 6:08.22 - (33.6)
4800m - 6:41.56 - (33.3)
5200m - 7:15.56 - (33.9)
5600m - 7:49.31 - (33.7)
6000m - 8:23.22 - (33.9)
6400m - 8:57.41 - (34.1)
6800m - 9:31.46 - (34.0)
7200m - 10:05.46 - (34.0)
7600m - 10:39.92 - (34.4)
8000m - 11:15.12 - (35.1)
8400m - 11:49.91 - (34.7)
8800m - 12:23.93 - (34.0)
9200m - 12:57.63 - (33.7)
9600m - 13:31.36 - (33.7)
10000m - 14:04.0 - (32.7)
57.77 42.203